Regional Weather Roundup
Issued by NWS Sterling, VA

Home | Current Version | Previous Version | Graphics & Text | Print | Product List | Glossary On
Versions: 1 2 3 4 5 6 7 8 9 10 11 12 13 14 15 16 17 18 19 20 21 22 23 24 25 26 27 28
000
ASUS41 KLWX 170710
RWRLWX

REGIONAL WEATHER ROUNDUP
NATIONAL WEATHER SERVICE BALTIMORE MD/WASHINGTON DC
200 AM EST TUE JAN 17 2017

Note: "FAIR" indicates few or no clouds below 12,000 feet
with no significant weather and/or obstructions to visibility.
 TC=TEMPERATURE CELSIUS

 * =Non NWS site. Station does not report precipitation (e.g. rain,
    snow, etc.), thunder, or fog.

DCZ001-MDZ009-015-VAZ040>042-051-053>054-170800-
WASHINGTON METRO

CITY           SKY/WX    TMP DP  RH WIND       PRES   REMARKS
WASHINGTON NAT CLOUDY    41  39  93 S3        30.27F
DULLES         CLOUDY    40  37  89 SE5       30.24F
ANDREWS AFB    CLOUDY    39  37  93 SE3       30.24F
FT BELVOIR     CLOUDY    40  38  94 CALM      30.26S
QUANTICO       CLOUDY    41  39  93 SW3       30.27F
LEESBURG*      CLOUDY    43  41  93 MISG      30.25F
GAITHERSBURG*  CLOUDY    39  34  81 S3        30.28F

$$

MDZ006>007-011-014-170800-
BALTIMORE METRO

CITY           SKY/WX    TMP DP  RH WIND       PRES   REMARKS
BWI AIRPORT    LGT RAIN  39  34  82 CALM      30.26S
MD SCIENCE CTR   N/A     41  32  70 MISG      30.26F
ANNAPOLIS      LGT RAIN  41  37  86 S3        30.26F
FORT MEADE*    CLOUDY    36  34  93 CALM      30.28F

$$

MDZ012-015-019>023-170800-
MARYLAND EASTERN SHORE

CITY           SKY/WX    TMP DP  RH WIND       PRES   REMARKS
OCEAN CITY     CLOUDY    41  38  89 CALM      30.28F
SALISBURY      CLOUDY    40  36  86 CALM      30.28F
BAY BRIDGE AP* LGT RAIN  39  37  93 S5        30.27S FOG
CAMBRIDGE*     CLOUDY    39  32  75 S3        30.27F
EASTON*        DRIZZLE   41  37  85 CALM      30.30F

$$

MDZ017>025-170800-
SOUTHERN MARYLAND

CITY           SKY/WX    TMP DP  RH WIND       PRES   REMARKS
PATUXENT RIVER CLOUDY    42  34  73 S7        30.27F
ST INIGOES     NOT AVBL
LEONARDTOWN*   CLOUDY    41  34  75 S3        30.29S

$$

MDZ003>005-170800-
NORTH CENTRAL MARYLAND

CITY           SKY/WX    TMP DP  RH WIND       PRES   REMARKS
FREDERICK*     CLOUDY    36  36 100 CALM      30.28S
HAGERSTOWN APT CLOUDY    35  31  85 N3        30.22F FOG
WESTMINSTER*   CLOUDY    37  34  87 S3        30.22F

$$

MDZ501>502-170800-
WESTERN MARYLAND

CITY           SKY/WX    TMP DP  RH WIND       PRES   REMARKS
OAKLAND*         N/A     46  46 100 S7        30.13F FOG
CUMBERLAND*    CLOUDY    36  34  93 CALM      30.25F

$$

VAZ025>031-170800-
SHENANDOAH VALLEY

CITY           SKY/WX    TMP DP  RH WIND       PRES   REMARKS
WINCHESTER*    CLOUDY    37  34  87 NE3       30.21F
FRONT ROYAL*   CLOUDY    39  37  93 CALM      30.20F
LURAY*         PTSUNNY   45  43  93 SW3       30.20F
NEW MARKET*    CLOUDY    43  40  88 W5        30.20F
STAUNTON*      CLOUDY    41  39  93 CALM      30.22F
WAYNESBORO*    FAIR      39  38  96 S3        30.20F

$$

WVZ021-048>050-054>055-170800-
EASTERN WEST VIRGINIA PANHANDLE

CITY           SKY/WX    TMP DP  RH WIND       PRES   REMARKS
MARTINSBURG    CLOUDY    37  32  82 NE5       30.22F HAZE
PETERSBURG*    MOCLDY    39  37  90 CALM      30.21F

$$

VAZ036>039-050-170800-
CENTRAL FOOTHILLS

CITY           SKY/WX    TMP DP  RH WIND       PRES   REMARKS
CHARLOTTESVILL PTCLDY    42  40  92 S6        30.22F FOG
CULPEPER*      CLOUDY    42  41  97 CALM      30.25S
ORANGE*          N/A     41  41 100 CALM      30.26S
GORDONSVILLE*  CLOUDY    40  40 100 SW6       30.23S FOG
WARRENTON*     CLOUDY    42  38  89 CALM      30.24S

$$

VAZ055>057-170800-
NORTH AND CENTRAL PIEDMONT

CITY           SKY/WX    TMP DP  RH WIND       PRES   REMARKS
FREDERICKSBRG* MOCLDY    40  40  97 CALM      30.26S
STAFFORD*      CLOUDY    40  38  94 CALM      30.30S

$$

NCZ024-NYZ072-PAZ021-071-VAZ022-071-170800-
OTHER REGIONAL OBSERVATIONS

CITY           SKY/WX    TMP DP  RH WIND       PRES   REMARKS
NEW YORK CITY  CLOUDY    40  26  57 VRB5      30.28F
PHILADELPHIA   CLOUDY    39  28  64 CALM      30.29F
PITTSBURGH     CLOUDY    38  37  97 SE3       30.09F
ROANOKE        FOG       41  41 100 CALM      30.25F VSB 1/4
RICHMOND       CLOUDY    42  41  96 S5        30.26F
RALEIGH        CLOUDY    48  42  80 SW5       30.27F

$$

ANZ530>537-170800-
MARINE OBSERVATIONS

STATION/POSITION TIME  TEMP    WIND        PRES
                       AIR SEA DIR/SP/G
                 (UTC) (F)     (DEG/KT/KT) (MB)
THOMAS PT LIGHT  0700   39 38  200/  5/  6   N/A
BALT KEY BRIDGE  0648          200/  5/  6 1025.0F
COVE POINT       0648          180/  8/  8 1025.6F
LEWISETTA        0648          220/  4/  4 1025.2F
SOLOMONS ISLAND  0648          180/  5/  6   N/A
PINEY POINT      0648          200/  5/  6   N/A

$$





USA.gov is the U.S. government's official web portal to all federal, state and local government web resources and services.